User: anonymous   Login
Location: Sungai Jaoh
(2.9167°N, 113.9167°E)
Time: 22:58:43
(UTC+00:00)
Language:

COSMOS 2251 DEB - Orbit

View from above orbital plane
View from above orbital plane
View from above satellite
View from above satellite

Ground track
Ground track

The orbit data is extracted from the following two-line orbital elements,

1 34304U 93036NA  21175.54769551  .00000356  00000-0  14713-3 0  9996
2 34304  74.0178 209.5389 0155876  11.1530 140.5987 14.23884310639828
Epoch (UTC): 24 June 2021 13:08:40
Eccentricity: 0.0155876
inclination: 74.0178°
perigee height: 700 km
apogee height: 924 km
right ascension of ascending node: 209.5389°
argument of perigee: 11.1530°
revolutions per day: 14.23884310
mean anomaly at epoch: 140.5987°
orbit number at epoch: 63982

The dashed part of the orbit path shows where the satellite is in the earth's shadow,  

DLR